TimeEST,TemperatureF,Dew PointF,Humidity,Sea Level PressureIn,VisibilityMPH,Wind Direction,Wind SpeedMPH,Gust SpeedMPH,PrecipitationIn,Events,Conditions,WindDirDegrees,DateUTC
1:52 AM,43.0,28.0,56,30.15,10.0,South,4.6,-,N/A,,Overcast,190,2012-12-15 06:52:00
2:52 AM,42.1,27.0,55,30.14,10.0,SSE,3.5,-,N/A,,Overcast,150,2012-12-15 07:52:00
3:52 AM,41.0,28.0,60,30.12,10.0,ESE,5.8,-,N/A,,Overcast,110,2012-12-15 08:52:00
4:52 AM,39.9,27.0,60,30.08,10.0,SE,5.8,-,N/A,,Overcast,130,2012-12-15 09:52:00
5:52 AM,39.0,28.0,65,30.09,10.0,South,4.6,-,N/A,,Overcast,190,2012-12-15 10:52:00
6:52 AM,41.0,30.0,65,30.13,10.0,South,5.8,-,N/A,,Mostly Cloudy,180,2012-12-15 11:52:00
7:52 AM,41.0,30.9,67,30.11,10.0,South,8.1,-,N/A,,Mostly Cloudy,170,2012-12-15 12:52:00
8:52 AM,43.0,32.0,65,30.07,10.0,SSE,9.2,-,N/A,,Overcast,160,2012-12-15 13:52:00
9:52 AM,45.0,33.1,63,30.04,10.0,SSE,10.4,-,N/A,,Overcast,160,2012-12-15 14:52:00
10:52 AM,48.9,35.1,59,30.04,10.0,South,6.9,-,N/A,,Overcast,180,2012-12-15 15:52:00
11:52 AM,48.9,37.0,64,30.03,9.0,South,9.2,-,0.00,Rain,Light Rain,170,2012-12-15 16:52:00
12:52 PM,46.9,43.0,86,29.96,7.0,SSE,11.5,-,0.07,Rain,Light Rain,150,2012-12-15 17:52:00
1:52 PM,48.9,43.0,80,29.90,10.0,SSE,11.5,-,0.01,,Overcast,160,2012-12-15 18:52:00
2:52 PM,50.0,44.1,80,29.87,10.0,SSE,13.8,-,0.00,Rain,Light Rain,160,2012-12-15 19:52:00
3:52 PM,51.1,43.0,74,29.85,10.0,SSE,15.0,-,0.00,,Overcast,160,2012-12-15 20:52:00
4:52 PM,50.0,44.1,80,29.85,10.0,South,10.4,-,0.00,,Overcast,170,2012-12-15 21:52:00
5:52 PM,51.1,43.0,74,29.83,10.0,South,11.5,-,N/A,,Overcast,170,2012-12-15 22:52:00
6:52 PM,52.0,42.1,69,29.81,10.0,South,13.8,-,N/A,,Overcast,180,2012-12-15 23:52:00
7:52 PM,53.1,43.0,69,29.81,10.0,South,12.7,-,N/A,,Overcast,190,2012-12-16 00:52:00
8:52 PM,54.0,44.1,69,29.81,10.0,SSW,8.1,-,N/A,,Overcast,200,2012-12-16 01:52:00
9:52 PM,52.0,45.0,77,29.81,10.0,SSE,6.9,-,N/A,,Overcast,160,2012-12-16 02:52:00
10:52 PM,52.0,44.1,74,29.81,10.0,South,6.9,-,N/A,,Overcast,190,2012-12-16 03:52:00
10:59 PM,51.8,44.6,76,29.81,10.0,South,6.9,-,N/A,,Overcast,170,2012-12-16 03:59:00
11:26 PM,51.8,44.6,76,29.80,10.0,South,6.9,-,N/A,,Overcast,180,2012-12-16 04:26:00
11:52 PM,50.0,44.1,80,29.80,10.0,South,6.9,-,N/A,,Overcast,180,2012-12-16 04:52:00